Time,TemperatureF,DewpointF,PressureIn,WindDirection,WindDirectionDegrees,WindSpeedMPH,WindSpeedGustMPH,Humidity,HourlyPrecipIn,Conditions,Clouds,dailyrainin,SoftwareType,DateUTC
2013-02-14 00:00:00,42.2,40.6,30.50,SE,139,0.0,0.0,94,0.00,,---,0.04,VWS V14.01,2013-02-14 08:00:00,
2013-02-14 00:05:00,42.2,40.9,30.50,SE,139,0.0,0.0,95,0.00,,---,0.00,VWS V14.01,2013-02-14 08:05:00,
2013-02-14 00:10:00,42.2,40.9,30.50,SE,139,0.0,0.0,95,0.00,,---,0.00,VWS V14.01,2013-02-14 08:10:00,
2013-02-14 00:15:00,42.1,40.8,30.51,SE,139,0.0,0.0,95,0.00,,---,0.00,VWS V14.01,2013-02-14 08:15:00,
2013-02-14 00:20:00,42.0,40.7,30.51,SE,139,0.0,0.0,95,0.00,,---,0.00,VWS V14.01,2013-02-14 08:20:00,
2013-02-14 00:25:00,42.0,40.7,30.51,SE,139,0.0,0.0,95,0.00,,---,0.00,VWS V14.01,2013-02-14 08:25:00,
2013-02-14 00:30:00,42.1,40.8,30.51,SE,139,0.0,0.0,95,0.00,,---,0.00,VWS V14.01,2013-02-14 08:30:00,
2013-02-14 00:35:00,42.1,40.8,30.51,SE,139,0.0,0.0,95,0.00,,---,0.00,VWS V14.01,2013-02-14 08:35:00,
2013-02-14 00:40:00,42.1,40.8,30.51,SE,139,0.0,0.0,95,0.00,,---,0.00,VWS V14.01,2013-02-14 08:40:00,
2013-02-14 00:45:00,42.1,40.8,30.51,SE,139,0.0,0.0,95,0.00,,---,0.00,VWS V14.01,2013-02-14 08:45:00,
2013-02-14 00:50:00,42.1,40.5,30.51,SE,139,0.0,0.0,94,0.00,,---,0.00,VWS V14.01,2013-02-14 08:50:00,
2013-02-14 00:55:00,42.1,40.5,30.51,SE,139,0.0,0.0,94,0.00,,---,0.00,VWS V14.01,2013-02-14 08:55:00,
2013-02-14 01:00:00,42.1,40.5,30.51,SE,139,0.0,0.0,94,0.00,,---,0.00,VWS V14.01,2013-02-14 09:00:00,
2013-02-14 01:05:00,42.2,40.6,30.51,SE,139,0.0,0.0,94,0.00,,---,0.00,VWS V14.01,2013-02-14 09:05:00,
2013-02-14 01:10:00,42.2,40.6,30.51,SE,139,0.0,0.0,94,0.00,,---,0.00,VWS V14.01,2013-02-14 09:10:00,
2013-02-14 01:15:00,42.2,40.6,30.51,SE,139,0.0,0.0,94,0.00,,---,0.00,VWS V14.01,2013-02-14 09:15:00,
2013-02-14 01:20:00,42.2,40.6,30.51,SE,139,0.0,0.0,94,0.00,,---,0.00,VWS V14.01,2013-02-14 09:20:00,
2013-02-14 01:25:00,42.2,40.3,30.51,SE,139,0.0,0.0,93,0.00,,---,0.00,VWS V14.01,2013-02-14 09:25:00,
2013-02-14 01:30:00,42.2,40.3,30.50,SE,139,0.0,0.0,93,0.00,,---,0.00,VWS V14.01,2013-02-14 09:30:00,
2013-02-14 01:35:00,42.2,40.3,30.51,SE,139,0.0,0.0,93,0.00,,---,0.00,VWS V14.01,2013-02-14 09:35:00,
2013-02-14 01:40:00,42.2,40.3,30.51,SE,139,0.0,0.0,93,0.00,,---,0.00,VWS V14.01,2013-02-14 09:40:00,
2013-02-14 01:45:00,42.2,40.3,30.51,SE,139,0.0,0.0,93,0.00,,---,0.00,VWS V14.01,2013-02-14 09:45:00,
2013-02-14 01:50:00,42.3,40.4,30.50,SE,139,0.0,0.0,93,0.00,,---,0.00,VWS V14.01,2013-02-14 09:50:00,
2013-02-14 01:55:00,42.3,40.4,30.50,SE,139,0.0,0.0,93,0.00,,---,0.00,VWS V14.01,2013-02-14 09:55:00,
2013-02-14 02:00:00,42.4,40.8,30.50,East,98,0.0,0.0,94,0.00,,---,0.00,VWS V14.01,2013-02-14 10:00:00,
2013-02-14 02:05:00,42.4,40.8,30.50,SSE,153,0.0,0.0,94,0.00,,---,0.00,VWS V14.01,2013-02-14 10:05:00,
2013-02-14 02:10:00,42.5,40.9,30.50,SSE,153,0.0,0.0,94,0.00,,---,0.00,VWS V14.01,2013-02-14 10:10:00,
2013-02-14 02:15:00,42.5,41.2,30.50,South,184,0.0,0.0,95,0.00,,---,0.00,VWS V14.01,2013-02-14 10:15:00,
2013-02-14 02:20:00,42.5,41.2,30.51,South,184,0.0,0.0,95,0.00,,---,0.00,VWS V14.01,2013-02-14 10:20:00,
2013-02-14 02:25:00,42.5,41.2,30.51,South,185,0.0,0.0,95,0.00,,---,0.00,VWS V14.01,2013-02-14 10:25:00,
2013-02-14 02:30:00,42.5,41.2,30.50,SE,126,0.0,0.0,95,0.00,,---,0.00,VWS V14.01,2013-02-14 10:30:00,
2013-02-14 02:35:00,42.5,41.2,30.50,ESE,105,0.0,0.0,95,0.00,,---,0.00,VWS V14.01,2013-02-14 10:35:00,
2013-02-14 02:40:00,42.5,41.2,30.50,ESE,105,0.0,0.0,95,0.00,,---,0.00,VWS V14.01,2013-02-14 10:40:00,
2013-02-14 02:45:00,42.6,41.3,30.50,ESE,105,0.0,0.0,95,0.00,,---,0.00,VWS V14.01,2013-02-14 10:45:00,
2013-02-14 02:50:00,42.6,41.3,30.50,ESE,105,0.0,0.0,95,0.00,,---,0.00,VWS V14.01,2013-02-14 10:50:00,
2013-02-14 02:55:00,42.7,41.4,30.50,SE,139,0.0,0.0,95,0.00,,---,0.00,VWS V14.01,2013-02-14 10:55:00,
2013-02-14 03:00:00,42.7,41.6,30.50,SE,139,0.0,0.0,96,0.00,,---,0.00,VWS V14.01,2013-02-14 11:00:00,
2013-02-14 03:05:00,42.7,41.6,30.50,East,84,0.0,0.0,96,0.00,,---,0.00,VWS V14.01,2013-02-14 11:05:00,
2013-02-14 03:10:00,42.7,41.6,30.50,SE,127,0.0,0.0,96,0.00,,---,0.00,VWS V14.01,2013-02-14 11:10:00,
2013-02-14 03:15:00,42.7,41.6,30.49,SE,127,0.0,0.0,96,0.00,,---,0.00,VWS V14.01,2013-02-14 11:15:00,
2013-02-14 03:20:00,42.7,41.6,30.49,East,85,1.0,2.0,96,0.00,,---,0.00,VWS V14.01,2013-02-14 11:20:00,
2013-02-14 03:25:00,42.7,41.6,30.50,NNW,341,0.0,2.0,96,0.00,,---,0.00,VWS V14.01,2013-02-14 11:25:00,
2013-02-14 03:30:00,42.7,41.6,30.49,East,101,1.0,2.0,96,0.00,,---,0.00,VWS V14.01,2013-02-14 11:30:00,
2013-02-14 03:35:00,42.6,41.5,30.49,SSE,149,0.0,2.0,96,0.00,,---,0.00,VWS V14.01,2013-02-14 11:35:00,
2013-02-14 03:40:00,42.5,41.4,30.49,SE,129,2.0,3.0,96,0.00,,---,0.00,VWS V14.01,2013-02-14 11:40:00,
2013-02-14 03:45:00,42.4,41.3,30.49,NE,39,0.0,3.0,96,0.00,,---,0.00,VWS V14.01,2013-02-14 11:45:00,
2013-02-14 03:50:00,42.3,41.0,30.49,ESE,107,1.0,2.0,95,0.00,,---,0.00,VWS V14.01,2013-02-14 11:50:00,
2013-02-14 03:55:00,42.2,40.9,30.49,East,87,0.0,3.0,95,0.00,,---,0.00,VWS V14.01,2013-02-14 11:55:00,
2013-02-14 04:00:00,42.1,40.8,30.49,ESE,111,0.0,3.0,95,0.00,,---,0.00,VWS V14.01,2013-02-14 12:00:00,
2013-02-14 04:05:00,42.0,40.7,30.49,SSE,148,0.0,3.0,95,0.00,,---,0.00,VWS V14.01,2013-02-14 12:05:00,
2013-02-14 04:10:00,42.0,40.7,30.49,East,84,0.0,3.0,95,0.00,,---,0.00,VWS V14.01,2013-02-14 12:10:00,
2013-02-14 04:15:00,41.9,40.6,30.49,ESE,105,0.0,3.0,95,0.00,,---,0.00,VWS V14.01,2013-02-14 12:15:00,
2013-02-14 04:20:00,41.9,40.6,30.49,ENE,78,3.0,3.0,95,0.00,,---,0.00,VWS V14.01,2013-02-14 12:20:00,
2013-02-14 04:25:00,41.8,40.5,30.49,ESE,122,0.0,3.0,95,0.00,,---,0.00,VWS V14.01,2013-02-14 12:25:00,
2013-02-14 04:30:00,41.8,40.2,30.49,ESE,120,0.0,3.0,94,0.00,,---,0.00,VWS V14.01,2013-02-14 12:30:00,
2013-02-14 04:35:00,41.7,40.1,30.50,East,86,3.0,3.0,94,0.00,,---,0.00,VWS V14.01,2013-02-14 12:35:00,
2013-02-14 04:40:00,41.7,40.1,30.50,SE,126,2.0,4.0,94,0.00,,---,0.00,VWS V14.01,2013-02-14 12:40:00,
2013-02-14 04:44:00,41.6,40.0,30.50,ENE,72,0.0,4.0,94,0.00,,---,0.00,VWS V14.01,2013-02-14 12:44:00,
2013-02-14 04:49:00,41.6,40.0,30.50,East,95,0.0,2.0,94,0.00,,---,0.00,VWS V14.01,2013-02-14 12:49:00,
2013-02-14 04:54:00,41.5,39.6,30.50,East,97,2.0,3.0,93,0.00,,---,0.00,VWS V14.01,2013-02-14 12:54:00,
2013-02-14 04:59:00,41.5,39.6,30.50,East,85,0.0,3.0,93,0.00,,---,0.00,VWS V14.01,2013-02-14 12:59:00,
2013-02-14 05:04:00,41.4,39.5,30.51,NE,36,2.0,2.0,93,0.00,,---,0.00,VWS V14.01,2013-02-14 13:04:00,
2013-02-14 05:09:00,41.4,39.5,30.51,East,89,0.0,2.0,93,0.00,,---,0.00,VWS V14.01,2013-02-14 13:09:00,
2013-02-14 05:14:00,41.3,39.4,30.51,East,89,0.0,2.0,93,0.00,,---,0.00,VWS V14.01,2013-02-14 13:14:00,
2013-02-14 05:19:00,41.3,39.4,30.52,NE,40,0.0,2.0,93,0.00,,---,0.00,VWS V14.01,2013-02-14 13:19:00,
2013-02-14 05:24:00,41.3,39.4,30.52,East,85,0.0,2.0,93,0.00,,---,0.00,VWS V14.01,2013-02-14 13:24:00,
2013-02-14 05:29:00,41.2,39.3,30.52,ESE,114,0.0,2.0,93,0.00,,---,0.00,VWS V14.01,2013-02-14 13:29:00,
2013-02-14 05:34:00,41.2,39.3,30.52,NE,36,0.0,2.0,93,0.00,,---,0.00,VWS V14.01,2013-02-14 13:34:00,
2013-02-14 05:39:00,41.2,39.3,30.52,East,81,0.0,2.0,93,0.00,,---,0.00,VWS V14.01,2013-02-14 13:39:00,
2013-02-14 05:44:00,41.2,39.6,30.52,ENE,78,0.0,2.0,94,0.00,,---,0.00,VWS V14.01,2013-02-14 13:44:00,
2013-02-14 05:49:00,41.2,39.6,30.51,East,98,0.0,1.0,94,0.00,,---,0.00,VWS V14.01,2013-02-14 13:49:00,
2013-02-14 05:54:00,41.2,39.6,30.51,East,98,0.0,1.0,94,0.00,,---,0.00,VWS V14.01,2013-02-14 13:54:00,
2013-02-14 05:59:00,41.2,39.6,30.52,SW,219,0.0,1.0,94,0.00,,---,0.00,VWS V14.01,2013-02-14 13:59:00,
2013-02-14 06:04:00,41.2,39.9,30.51,SW,218,0.0,1.0,95,0.00,,---,0.00,VWS V14.01,2013-02-14 14:04:00,
2013-02-14 06:09:00,41.3,40.0,30.51,SW,216,0.0,1.0,95,0.00,,---,0.00,VWS V14.01,2013-02-14 14:09:00,
2013-02-14 06:14:00,41.3,40.0,30.51,East,86,0.0,2.0,95,0.00,,---,0.00,VWS V14.01,2013-02-14 14:14:00,
2013-02-14 06:19:00,41.3,40.0,30.51,East,95,1.0,2.0,95,0.01,,---,0.01,VWS V14.01,2013-02-14 14:19:00,
2013-02-14 06:24:00,41.4,40.1,30.51,East,95,0.0,2.0,95,0.01,,---,0.01,VWS V14.01,2013-02-14 14:24:00,
2013-02-14 06:29:00,41.4,40.3,30.51,NE,42,0.0,2.0,96,0.01,,---,0.01,VWS V14.01,2013-02-14 14:29:00,
2013-02-14 06:34:00,41.4,40.3,30.51,ESE,111,0.0,2.0,96,0.01,,---,0.01,VWS V14.01,2013-02-14 14:34:00,
2013-02-14 06:39:00,41.4,40.3,30.51,ESE,105,0.0,2.0,96,0.01,,---,0.01,VWS V14.01,2013-02-14 14:39:00,
2013-02-14 06:44:00,41.4,40.3,30.51,NE,56,1.0,3.0,96,0.01,,---,0.01,VWS V14.01,2013-02-14 14:44:00,
2013-02-14 06:49:00,41.4,40.3,30.51,NE,49,0.0,2.0,96,0.01,,---,0.01,VWS V14.01,2013-02-14 14:49:00,
2013-02-14 06:54:00,41.4,40.3,30.51,East,90,0.0,2.0,96,0.02,,---,0.02,VWS V14.01,2013-02-14 14:54:00,
2013-02-14 06:59:00,41.3,40.2,30.51,NE,56,1.0,3.0,96,0.02,,---,0.02,VWS V14.01,2013-02-14 14:59:00,
2013-02-14 07:04:00,41.3,40.2,30.51,ESE,104,0.0,3.0,96,0.02,,---,0.02,VWS V14.01,2013-02-14 15:04:00,
2013-02-14 07:09:00,41.3,40.2,30.51,East,88,1.0,3.0,96,0.02,,---,0.02,VWS V14.01,2013-02-14 15:09:00,
2013-02-14 07:14:00,41.2,40.2,30.51,ESE,109,1.0,4.0,96,0.02,,---,0.02,VWS V14.01,2013-02-14 15:14:00,
2013-02-14 07:19:00,41.2,40.2,30.51,ESE,114,2.0,4.0,96,0.02,,---,0.02,VWS V14.01,2013-02-14 15:19:00,
2013-02-14 07:24:00,41.1,40.0,30.52,East,86,2.0,4.0,96,0.02,,---,0.02,VWS V14.01,2013-02-14 15:24:00,
2013-02-14 07:29:00,41.1,40.0,30.52,East,90,0.0,4.0,96,0.02,,---,0.02,VWS V14.01,2013-02-14 15:29:00,
2013-02-14 07:34:00,41.1,40.0,30.52,ENE,71,1.0,2.0,96,0.01,,---,0.02,VWS V14.01,2013-02-14 15:34:00,
2013-02-14 07:39:00,41.1,40.0,30.52,North,355,0.0,2.0,96,0.01,,---,0.02,VWS V14.01,2013-02-14 15:39:00,
2013-02-14 07:44:00,41.1,40.0,30.52,ESE,122,1.0,3.0,96,0.01,,---,0.02,VWS V14.01,2013-02-14 15:44:00,
2013-02-14 07:49:00,41.1,40.0,30.52,ENE,57,0.0,3.0,96,0.01,,---,0.02,VWS V14.01,2013-02-14 15:49:00,
2013-02-14 07:54:00,41.1,40.0,30.52,East,96,1.0,3.0,96,0.01,,---,0.02,VWS V14.01,2013-02-14 15:54:00,
2013-02-14 07:59:00,41.1,40.0,30.53,East,80,0.0,3.0,96,0.02,,---,0.03,VWS V14.01,2013-02-14 15:59:00,
2013-02-14 08:04:00,41.1,40.0,30.53,North,11,0.0,3.0,96,0.01,,---,0.03,VWS V14.01,2013-02-14 16:04:00,
2013-02-14 08:09:00,41.2,40.2,30.53,East,87,0.0,3.0,96,0.01,,---,0.03,VWS V14.01,2013-02-14 16:09:00,
2013-02-14 08:14:00,41.2,40.2,30.53,SE,139,1.0,3.0,96,0.01,,---,0.03,VWS V14.01,2013-02-14 16:14:00,
2013-02-14 08:19:00,41.2,40.2,30.53,ESE,111,0.0,1.0,96,0.01,,---,0.03,VWS V14.01,2013-02-14 16:19:00,
2013-02-14 08:24:00,41.2,40.2,30.53,East,84,0.0,3.0,96,0.01,,---,0.03,VWS V14.01,2013-02-14 16:24:00,
2013-02-14 08:29:00,41.2,40.2,30.53,ENE,70,1.0,3.0,96,0.01,,---,0.03,VWS V14.01,2013-02-14 16:29:00,
2013-02-14 08:34:00,41.3,40.2,30.54,ESE,118,1.0,1.0,96,0.01,,---,0.03,VWS V14.01,2013-02-14 16:34:00,
2013-02-14 08:39:00,41.3,40.2,30.54,NE,47,0.0,3.0,96,0.01,,---,0.03,VWS V14.01,2013-02-14 16:39:00,
2013-02-14 08:44:00,41.4,40.3,30.54,NNE,32,1.0,3.0,96,0.01,,---,0.03,VWS V14.01,2013-02-14 16:44:00,
2013-02-14 08:49:00,41.4,40.3,30.55,ENE,59,0.0,2.0,96,0.01,,---,0.03,VWS V14.01,2013-02-14 16:49:00,
2013-02-14 08:54:00,41.4,40.3,30.55,SE,128,1.0,2.0,96,0.01,,---,0.03,VWS V14.01,2013-02-14 16:54:00,
2013-02-14 08:59:00,41.4,40.3,30.55,ENE,66,0.0,2.0,96,0.01,,---,0.03,VWS V14.01,2013-02-14 16:59:00,
2013-02-14 09:04:00,41.4,40.3,30.55,ESE,107,2.0,2.0,96,0.00,,---,0.03,VWS V14.01,2013-02-14 17:04:00,
2013-02-14 09:09:00,41.4,40.3,30.55,ESE,107,0.0,2.0,96,0.00,,---,0.03,VWS V14.01,2013-02-14 17:09:00,
2013-02-14 09:14:00,41.5,40.5,30.55,East,90,2.0,2.0,96,0.00,,---,0.03,VWS V14.01,2013-02-14 17:14:00,
2013-02-14 09:19:00,41.5,40.5,30.55,ESE,107,0.0,2.0,96,0.00,,---,0.03,VWS V14.01,2013-02-14 17:19:00,
2013-02-14 09:24:00,41.6,40.5,30.55,ESE,105,1.0,3.0,96,0.00,,---,0.03,VWS V14.01,2013-02-14 17:24:00,
2013-02-14 09:29:00,41.6,40.5,30.55,ESE,114,1.0,3.0,96,0.00,,---,0.03,VWS V14.01,2013-02-14 17:29:00,
2013-02-14 09:34:00,41.6,40.5,30.55,ENE,68,1.0,2.0,96,0.00,,---,0.03,VWS V14.01,2013-02-14 17:34:00,
2013-02-14 09:39:00,41.6,40.5,30.55,NE,53,0.0,2.0,96,0.00,,---,0.03,VWS V14.01,2013-02-14 17:39:00,
2013-02-14 09:44:00,41.7,40.7,30.54,ESE,120,1.0,2.0,96,0.00,,---,0.03,VWS V14.01,2013-02-14 17:44:00,
2013-02-14 09:49:00,41.7,40.7,30.54,ESE,119,1.0,2.0,96,0.00,,---,0.03,VWS V14.01,2013-02-14 17:49:00,
2013-02-14 09:54:00,41.7,40.7,30.54,SE,128,1.0,2.0,96,0.00,,---,0.03,VWS V14.01,2013-02-14 17:54:00,
2013-02-14 09:59:00,41.8,40.8,30.54,ESE,117,2.0,4.0,96,0.00,,---,0.03,VWS V14.01,2013-02-14 17:59:00,
2013-02-14 10:04:00,41.8,40.8,30.54,ESE,115,1.0,2.0,96,0.00,,---,0.03,VWS V14.01,2013-02-14 18:04:00,
2013-02-14 10:09:00,41.8,40.8,30.54,East,97,1.0,2.0,96,0.00,,---,0.03,VWS V14.01,2013-02-14 18:09:00,
2013-02-14 10:14:00,41.9,40.8,30.54,ENE,70,0.0,3.0,96,0.00,,---,0.03,VWS V14.01,2013-02-14 18:14:00,
2013-02-14 10:19:00,41.9,40.8,30.55,ESE,121,1.0,3.0,96,0.00,,---,0.03,VWS V14.01,2013-02-14 18:19:00,
2013-02-14 10:24:00,42.0,40.9,30.55,SE,128,3.0,3.0,96,0.00,,---,0.03,VWS V14.01,2013-02-14 18:24:00,
2013-02-14 10:29:00,42.0,40.9,30.55,ESE,113,1.0,3.0,96,0.00,,---,0.03,VWS V14.01,2013-02-14 18:29:00,
2013-02-14 10:34:00,42.2,41.1,30.55,SSE,164,0.0,1.0,96,0.00,,---,0.03,VWS V14.01,2013-02-14 18:34:00,
2013-02-14 10:39:00,42.2,41.1,30.55,South,177,0.0,2.0,96,0.00,,---,0.03,VWS V14.01,2013-02-14 18:39:00,
2013-02-14 10:44:00,42.1,40.8,30.55,ENE,78,2.0,3.0,95,0.00,,---,0.03,VWS V14.01,2013-02-14 18:44:00,
2013-02-14 10:49:00,42.2,41.1,30.55,East,85,2.0,3.0,96,0.00,,---,0.03,VWS V14.01,2013-02-14 18:49:00,
2013-02-14 10:54:00,42.2,41.1,30.55,ESE,121,0.0,3.0,96,0.00,,---,0.03,VWS V14.01,2013-02-14 18:54:00,
2013-02-14 10:59:00,42.2,40.9,30.55,SSW,192,0.0,6.0,95,0.00,,---,0.03,VWS V14.01,2013-02-14 18:59:00,
2013-02-14 11:04:00,42.2,41.1,30.55,ESE,119,0.0,2.0,96,0.00,,---,0.03,VWS V14.01,2013-02-14 19:04:00,
2013-02-14 11:09:00,42.3,41.0,30.55,ESE,111,1.0,3.0,95,0.00,,---,0.03,VWS V14.01,2013-02-14 19:09:00,
2013-02-14 11:14:00,42.3,41.2,30.55,SSE,163,0.0,4.0,96,0.00,,---,0.03,VWS V14.01,2013-02-14 19:14:00,
2013-02-14 11:19:00,42.4,41.3,30.55,SE,134,0.0,2.0,96,0.00,,---,0.03,VWS V14.01,2013-02-14 19:19:00,
2013-02-14 11:24:00,42.5,41.4,30.55,ESE,119,2.0,2.0,96,0.00,,---,0.03,VWS V14.01,2013-02-14 19:24:00,
2013-02-14 11:29:00,42.5,41.2,30.55,SSE,148,1.0,5.0,95,0.00,,---,0.03,VWS V14.01,2013-02-14 19:29:00,
2013-02-14 11:34:00,42.6,41.3,30.55,SE,125,1.0,5.0,95,0.00,,---,0.03,VWS V14.01,2013-02-14 19:34:00,
2013-02-14 11:39:00,42.6,41.3,30.55,SSW,195,0.0,5.0,95,0.00,,---,0.03,VWS V14.01,2013-02-14 19:39:00,
2013-02-14 11:44:00,42.6,41.3,30.55,ESE,111,2.0,5.0,95,0.00,,---,0.03,VWS V14.01,2013-02-14 19:44:00,
2013-02-14 11:49:00,42.8,41.5,30.56,ESE,105,2.0,2.0,95,0.00,,---,0.03,VWS V14.01,2013-02-14 19:49:00,
2013-02-14 11:54:00,42.7,41.4,30.56,SSW,202,0.0,3.0,95,0.00,,---,0.03,VWS V14.01,2013-02-14 19:54:00,
2013-02-14 11:59:00,42.8,41.5,30.56,SE,134,4.0,4.0,95,0.00,,---,0.03,VWS V14.01,2013-02-14 19:59:00,
2013-02-14 12:04:00,42.9,41.6,30.55,ESE,113,1.0,2.0,95,0.00,,---,0.03,VWS V14.01,2013-02-14 20:04:00,
2013-02-14 12:09:00,42.9,41.3,30.55,East,90,0.0,3.0,94,0.00,,---,0.03,VWS V14.01,2013-02-14 20:09:00,
2013-02-14 12:14:00,43.0,41.7,30.55,ESE,119,1.0,3.0,95,0.00,,---,0.03,VWS V14.01,2013-02-14 20:14:00,
2013-02-14 12:19:00,43.0,41.7,30.55,NNW,327,0.0,0.0,95,0.00,,---,0.03,VWS V14.01,2013-02-14 20:19:00,
2013-02-14 12:24:00,43.1,41.5,30.56,ESE,107,0.0,3.0,94,0.00,,---,0.03,VWS V14.01,2013-02-14 20:24:00,
2013-02-14 12:29:00,43.2,41.9,30.56,South,170,1.0,3.0,95,0.00,,---,0.03,VWS V14.01,2013-02-14 20:29:00,
2013-02-14 12:34:00,43.3,42.0,30.56,ENE,75,0.0,3.0,95,0.00,,---,0.03,VWS V14.01,2013-02-14 20:34:00,
2013-02-14 12:39:00,43.4,42.1,30.55,ENE,65,1.0,3.0,95,0.00,,---,0.03,VWS V14.01,2013-02-14 20:39:00,
2013-02-14 12:44:00,43.5,42.2,30.55,NE,40,2.0,4.0,95,0.00,,---,0.03,VWS V14.01,2013-02-14 20:44:00,
2013-02-14 12:49:00,43.4,41.8,30.55,ESE,123,0.0,1.0,94,0.00,,---,0.03,VWS V14.01,2013-02-14 20:49:00,
2013-02-14 12:54:00,43.4,42.1,30.56,South,169,0.0,1.0,95,0.00,,---,0.03,VWS V14.01,2013-02-14 20:54:00,
2013-02-14 12:59:00,43.4,42.1,30.56,SE,138,0.0,1.0,95,0.00,,---,0.03,VWS V14.01,2013-02-14 20:59:00,
2013-02-14 13:04:00,43.5,42.2,30.56,East,101,0.0,0.0,95,0.00,,---,0.03,VWS V14.01,2013-02-14 21:04:00,
2013-02-14 13:09:00,43.4,42.1,30.56,East,88,0.0,0.0,95,0.00,,---,0.03,VWS V14.01,2013-02-14 21:09:00,
2013-02-14 13:14:00,43.4,42.1,30.55,ESE,107,0.0,4.0,95,0.00,,---,0.03,VWS V14.01,2013-02-14 21:14:00,
2013-02-14 13:19:00,43.4,42.1,30.55,East,96,0.0,2.0,95,0.00,,---,0.03,VWS V14.01,2013-02-14 21:19:00,
2013-02-14 13:24:00,43.3,42.0,30.56,ESE,113,0.0,2.0,95,0.00,,---,0.03,VWS V14.01,2013-02-14 21:24:00,
2013-02-14 13:29:00,43.4,42.1,30.56,East,95,0.0,3.0,95,0.00,,---,0.03,VWS V14.01,2013-02-14 21:29:00,
2013-02-14 13:34:00,43.4,42.1,30.55,East,94,0.0,2.0,95,0.00,,---,0.03,VWS V14.01,2013-02-14 21:34:00,
2013-02-14 13:39:00,43.5,42.2,30.55,East,93,0.0,2.0,95,0.00,,---,0.03,VWS V14.01,2013-02-14 21:39:00,
2013-02-14 13:44:00,43.6,42.3,30.55,ENE,71,0.0,4.0,95,0.00,,---,0.03,VWS V14.01,2013-02-14 21:44:00,
2013-02-14 13:49:00,43.6,42.3,30.56,ESE,108,2.0,3.0,95,0.00,,---,0.03,VWS V14.01,2013-02-14 21:49:00,
2013-02-14 13:54:00,43.7,42.4,30.56,ESE,108,0.0,3.0,95,0.00,,---,0.03,VWS V14.01,2013-02-14 21:54:00,
2013-02-14 13:59:00,43.9,42.6,30.55,ESE,112,0.0,3.0,95,0.00,,---,0.03,VWS V14.01,2013-02-14 21:59:00,
2013-02-14 14:04:00,44.0,42.7,30.56,NE,36,0.0,1.0,95,0.00,,---,0.03,VWS V14.01,2013-02-14 22:04:00,
2013-02-14 14:09:00,44.1,42.5,30.55,ESE,104,0.0,1.0,94,0.00,,---,0.03,VWS V14.01,2013-02-14 22:09:00,
2013-02-14 14:14:00,44.3,42.7,30.56,East,101,2.0,2.0,94,0.00,,---,0.03,VWS V14.01,2013-02-14 22:14:00,
2013-02-14 14:19:00,44.2,42.3,30.55,ESE,118,0.0,4.0,93,0.00,,---,0.03,VWS V14.01,2013-02-14 22:19:00,
2013-02-14 14:24:00,44.2,42.6,30.55,ESE,102,0.0,4.0,94,0.00,,---,0.03,VWS V14.01,2013-02-14 22:24:00,
2013-02-14 14:29:00,44.3,42.4,30.55,ESE,113,0.0,4.0,93,0.00,,---,0.03,VWS V14.01,2013-02-14 22:29:00,
2013-02-14 14:34:00,44.3,42.7,30.55,WSW,250,1.0,3.0,94,0.00,,---,0.03,VWS V14.01,2013-02-14 22:34:00,
2013-02-14 14:39:00,44.4,42.8,30.55,East,88,2.0,3.0,94,0.00,,---,0.03,VWS V14.01,2013-02-14 22:39:00,
2013-02-14 14:44:00,44.5,42.9,30.55,WSW,240,0.0,4.0,94,0.00,,---,0.03,VWS V14.01,2013-02-14 22:44:00,
2013-02-14 14:49:00,44.6,43.0,30.55,East,100,0.0,2.0,94,0.00,,---,0.03,VWS V14.01,2013-02-14 22:49:00,
2013-02-14 14:54:00,44.5,42.6,30.55,ESE,118,0.0,2.0,93,0.00,,---,0.03,VWS V14.01,2013-02-14 22:54:00,
2013-02-14 14:59:00,44.6,42.7,30.55,SE,132,1.0,5.0,93,0.00,,---,0.03,VWS V14.01,2013-02-14 22:59:00,
2013-02-14 15:04:00,44.6,42.7,30.55,SSE,167,0.0,0.0,93,0.00,,---,0.03,VWS V14.01,2013-02-14 23:04:00,
2013-02-14 15:09:00,44.7,42.8,30.55,East,94,0.0,0.0,93,0.00,,---,0.03,VWS V14.01,2013-02-14 23:09:00,
2013-02-14 15:14:00,44.8,42.9,30.55,ESE,121,0.0,3.0,93,0.00,,---,0.03,VWS V14.01,2013-02-14 23:14:00,
2013-02-14 15:19:00,44.9,43.0,30.55,East,88,0.0,0.0,93,0.00,,---,0.03,VWS V14.01,2013-02-14 23:19:00,
2013-02-14 15:24:00,44.9,43.0,30.55,ESE,114,0.0,0.0,93,0.00,,---,0.03,VWS V14.01,2013-02-14 23:24:00,
2013-02-14 15:29:00,45.0,43.1,30.56,ESE,114,0.0,0.0,93,0.00,,---,0.03,VWS V14.01,2013-02-14 23:29:00,
2013-02-14 15:34:00,45.1,43.2,30.56,ESE,114,0.0,0.0,93,0.00,,---,0.03,VWS V14.01,2013-02-14 23:34:00,
2013-02-14 15:39:00,45.2,43.3,30.55,ENE,63,0.0,0.0,93,0.00,,---,0.03,VWS V14.01,2013-02-14 23:39:00,
2013-02-14 15:44:00,45.2,43.3,30.55,ESE,109,0.0,0.0,93,0.00,,---,0.03,VWS V14.01,2013-02-14 23:44:00,
2013-02-14 15:49:00,45.1,43.2,30.55,NNE,19,3.0,3.0,93,0.00,,---,0.03,VWS V14.01,2013-02-14 23:49:00,
2013-02-14 15:54:00,45.1,43.2,30.55,NNE,33,1.0,3.0,93,0.00,,---,0.03,VWS V14.01,2013-02-14 23:54:00,
2013-02-14 15:59:00,45.0,43.1,30.55,East,96,1.0,3.0,93,0.00,,---,0.03,VWS V14.01,2013-02-14 23:59:00,
2013-02-14 16:04:00,45.0,43.1,30.56,East,98,0.0,0.0,93,0.00,,---,0.03,VWS V14.01,2013-02-15 00:04:00,
2013-02-14 16:09:00,45.0,43.1,30.56,NE,39,0.0,0.0,93,0.00,,---,0.03,VWS V14.01,2013-02-15 00:09:00,
2013-02-14 16:14:00,45.0,43.1,30.56,NE,39,0.0,0.0,93,0.00,,---,0.03,VWS V14.01,2013-02-15 00:14:00,
2013-02-14 16:19:00,45.0,43.1,30.56,NE,39,0.0,0.0,93,0.00,,---,0.03,VWS V14.01,2013-02-15 00:19:00,
2013-02-14 16:24:00,45.0,43.1,30.55,NE,41,0.0,0.0,93,0.00,,---,0.03,VWS V14.01,2013-02-15 00:24:00,
2013-02-14 16:29:00,45.0,43.1,30.55,NE,41,0.0,0.0,93,0.00,,---,0.03,VWS V14.01,2013-02-15 00:29:00,
2013-02-14 16:34:00,45.0,43.1,30.55,NE,41,0.0,0.0,93,0.00,,---,0.03,VWS V14.01,2013-02-15 00:34:00,
2013-02-14 16:39:00,44.9,43.0,30.55,East,96,0.0,1.0,93,0.00,,---,0.03,VWS V14.01,2013-02-15 00:39:00,
2013-02-14 16:44:00,44.9,43.3,30.55,East,95,0.0,1.0,94,0.00,,---,0.03,VWS V14.01,2013-02-15 00:44:00,
2013-02-14 16:49:00,44.9,43.0,30.55,East,95,0.0,0.0,93,0.00,,---,0.03,VWS V14.01,2013-02-15 00:49:00,
2013-02-14 16:54:00,44.9,43.3,30.54,ESE,109,0.0,0.0,94,0.00,,---,0.03,VWS V14.01,2013-02-15 00:54:00,
2013-02-14 16:59:00,44.9,43.3,30.54,ESE,109,0.0,0.0,94,0.00,,---,0.03,VWS V14.01,2013-02-15 00:59:00,
2013-02-14 17:04:00,44.9,43.3,30.55,ESE,109,0.0,0.0,94,0.00,,---,0.03,VWS V14.01,2013-02-15 01:04:00,
2013-02-14 17:09:00,44.9,43.3,30.55,ESE,109,0.0,0.0,94,0.00,,---,0.03,VWS V14.01,2013-02-15 01:09:00,
2013-02-14 17:14:00,44.9,43.3,30.55,ESE,109,0.0,0.0,94,0.00,,---,0.03,VWS V14.01,2013-02-15 01:14:00,
2013-02-14 17:19:00,44.9,43.3,30.55,ESE,109,0.0,0.0,94,0.00,,---,0.03,VWS V14.01,2013-02-15 01:19:00,
2013-02-14 17:24:00,44.9,43.3,30.55,ESE,109,0.0,0.0,94,0.00,,---,0.03,VWS V14.01,2013-02-15 01:24:00,
2013-02-14 17:29:00,44.9,43.3,30.55,ESE,109,0.0,0.0,94,0.00,,---,0.03,VWS V14.01,2013-02-15 01:29:00,
2013-02-14 17:34:00,44.8,43.2,30.55,ESE,109,0.0,0.0,94,0.00,,---,0.03,VWS V14.01,2013-02-15 01:34:00,
2013-02-14 17:39:00,44.8,43.2,30.55,ESE,109,0.0,0.0,94,0.00,,---,0.03,VWS V14.01,2013-02-15 01:39:00,
2013-02-14 17:44:00,44.8,43.2,30.55,ESE,109,0.0,0.0,94,0.00,,---,0.03,VWS V14.01,2013-02-15 01:44:00,
2013-02-14 17:49:00,44.7,43.1,30.55,ESE,109,0.0,0.0,94,0.00,,---,0.03,VWS V14.01,2013-02-15 01:49:00,
2013-02-14 17:54:00,44.8,43.2,30.55,ESE,109,0.0,0.0,94,0.00,,---,0.03,VWS V14.01,2013-02-15 01:54:00,
2013-02-14 17:59:00,44.7,43.1,30.55,ESE,109,0.0,0.0,94,0.00,,---,0.03,VWS V14.01,2013-02-15 01:59:00,
2013-02-14 18:04:00,44.7,43.1,30.55,ESE,109,0.0,0.0,94,0.00,,---,0.03,VWS V14.01,2013-02-15 02:04:00,
2013-02-14 18:09:00,44.7,43.1,30.55,ESE,109,0.0,0.0,94,0.00,,---,0.03,VWS V14.01,2013-02-15 02:09:00,
2013-02-14 18:13:00,44.6,43.0,30.55,ESE,109,0.0,0.0,94,0.00,,---,0.03,VWS V14.01,2013-02-15 02:13:00,
2013-02-14 18:19:00,44.6,43.3,30.56,ESE,109,0.0,0.0,95,0.00,,---,0.03,VWS V14.01,2013-02-15 02:19:00,
2013-02-14 18:24:00,44.6,43.3,30.56,ESE,109,0.0,0.0,95,0.00,,---,0.03,VWS V14.01,2013-02-15 02:24:00,
2013-02-14 18:29:00,44.6,43.3,30.56,ESE,109,0.0,0.0,95,0.00,,---,0.03,VWS V14.01,2013-02-15 02:29:00,
2013-02-14 18:33:00,44.5,43.2,30.56,ESE,109,0.0,0.0,95,0.00,,---,0.03,VWS V14.01,2013-02-15 02:33:00,
2013-02-14 18:38:00,44.5,43.2,30.56,ESE,109,0.0,0.0,95,0.00,,---,0.03,VWS V14.01,2013-02-15 02:38:00,
2013-02-14 18:43:00,44.5,43.2,30.56,ESE,109,0.0,0.0,95,0.00,,---,0.03,VWS V14.01,2013-02-15 02:43:00,
2013-02-14 18:48:00,44.4,43.1,30.56,ESE,109,0.0,0.0,95,0.00,,---,0.03,VWS V14.01,2013-02-15 02:48:00,
2013-02-14 18:53:00,44.4,43.1,30.56,ESE,109,0.0,0.0,95,0.00,,---,0.03,VWS V14.01,2013-02-15 02:53:00,
2013-02-14 18:58:00,44.4,43.1,30.56,ESE,109,0.0,0.0,95,0.00,,---,0.03,VWS V14.01,2013-02-15 02:58:00,
2013-02-14 19:03:00,44.4,43.1,30.56,ESE,109,0.0,0.0,95,0.00,,---,0.03,VWS V14.01,2013-02-15 03:03:00,
2013-02-14 19:08:00,44.3,43.0,30.56,ESE,109,0.0,0.0,95,0.00,,---,0.03,VWS V14.01,2013-02-15 03:08:00,
2013-02-14 19:13:00,44.3,43.0,30.56,ESE,109,0.0,0.0,95,0.00,,---,0.03,VWS V14.01,2013-02-15 03:13:00,
2013-02-14 19:18:00,44.3,43.0,30.56,ESE,109,0.0,0.0,95,0.00,,---,0.03,VWS V14.01,2013-02-15 03:18:00,
2013-02-14 19:23:00,44.2,43.1,30.56,ESE,109,0.0,0.0,96,0.00,,---,0.03,VWS V14.01,2013-02-15 03:23:00,
2013-02-14 19:28:00,44.1,43.0,30.56,East,82,0.0,0.0,96,0.00,,---,0.03,VWS V14.01,2013-02-15 03:28:00,
2013-02-14 19:33:00,44.1,43.0,30.56,East,82,0.0,0.0,96,0.00,,---,0.03,VWS V14.01,2013-02-15 03:33:00,
2013-02-14 19:38:00,44.1,43.0,30.56,East,82,0.0,0.0,96,0.00,,---,0.03,VWS V14.01,2013-02-15 03:38:00,
2013-02-14 19:43:00,44.0,42.9,30.56,East,82,0.0,0.0,96,0.00,,---,0.03,VWS V14.01,2013-02-15 03:43:00,
2013-02-14 19:48:00,44.0,42.9,30.56,East,80,0.0,0.0,96,0.00,,---,0.03,VWS V14.01,2013-02-15 03:48:00,
2013-02-14 19:53:00,43.9,42.8,30.56,East,80,0.0,0.0,96,0.00,,---,0.03,VWS V14.01,2013-02-15 03:53:00,
2013-02-14 19:58:00,43.9,42.8,30.56,NE,55,0.0,0.0,96,0.00,,---,0.03,VWS V14.01,2013-02-15 03:58:00,
2013-02-14 20:03:00,43.8,42.7,30.56,NE,55,0.0,0.0,96,0.00,,---,0.03,VWS V14.01,2013-02-15 04:03:00,
2013-02-14 20:08:00,43.8,42.7,30.56,East,80,0.0,0.0,96,0.00,,---,0.03,VWS V14.01,2013-02-15 04:08:00,
2013-02-14 20:13:00,43.8,42.7,30.56,East,80,0.0,0.0,96,0.00,,---,0.03,VWS V14.01,2013-02-15 04:13:00,
2013-02-14 20:18:00,43.8,42.7,30.56,East,80,0.0,0.0,96,0.00,,---,0.03,VWS V14.01,2013-02-15 04:18:00,
2013-02-14 20:23:00,43.8,42.7,30.56,East,80,0.0,0.0,96,0.00,,---,0.03,VWS V14.01,2013-02-15 04:23:00,
2013-02-14 20:28:00,43.8,42.7,30.56,East,80,0.0,0.0,96,0.00,,---,0.03,VWS V14.01,2013-02-15 04:28:00,
2013-02-14 20:33:00,43.8,42.7,30.56,East,80,0.0,0.0,96,0.00,,---,0.03,VWS V14.01,2013-02-15 04:33:00,
2013-02-14 20:38:00,43.7,42.6,30.56,East,80,0.0,0.0,96,0.00,,---,0.03,VWS V14.01,2013-02-15 04:38:00,
2013-02-14 20:43:00,43.7,42.6,30.56,East,80,0.0,0.0,96,0.00,,---,0.03,VWS V14.01,2013-02-15 04:43:00,
2013-02-14 20:48:00,43.7,42.9,30.56,East,80,0.0,0.0,97,0.00,,---,0.03,VWS V14.01,2013-02-15 04:48:00,
2013-02-14 20:53:00,43.6,42.8,30.56,East,80,0.0,0.0,97,0.00,,---,0.03,VWS V14.01,2013-02-15 04:53:00,
2013-02-14 20:58:00,43.6,42.8,30.56,East,80,0.0,0.0,97,0.00,,---,0.03,VWS V14.01,2013-02-15 04:58:00,
2013-02-14 21:00:00,43.6,42.8,30.55,East,80,0.0,0.0,97,0.00,,---,0.03,VWS V14.01,2013-02-15 05:00:00,
2013-02-14 21:05:00,43.6,42.8,30.56,East,80,0.0,0.0,97,0.00,,---,0.03,VWS V14.01,2013-02-15 05:05:00,
2013-02-14 21:10:00,43.6,42.8,30.56,East,80,0.0,0.0,97,0.00,,---,0.03,VWS V14.01,2013-02-15 05:10:00,
2013-02-14 21:15:00,43.6,42.8,30.56,East,80,0.0,0.0,97,0.00,,---,0.03,VWS V14.01,2013-02-15 05:15:00,
2013-02-14 21:20:00,43.5,42.7,30.56,East,80,0.0,0.0,97,0.00,,---,0.03,VWS V14.01,2013-02-15 05:20:00,
2013-02-14 21:25:00,43.5,42.7,30.56,East,80,0.0,0.0,97,0.00,,---,0.03,VWS V14.01,2013-02-15 05:25:00,
2013-02-14 21:30:00,43.4,42.6,30.56,East,80,0.0,0.0,97,0.00,,---,0.03,VWS V14.01,2013-02-15 05:30:00,
2013-02-14 21:35:00,43.4,42.6,30.56,East,80,0.0,0.0,97,0.00,,---,0.03,VWS V14.01,2013-02-15 05:35:00,
2013-02-14 21:40:00,43.4,42.6,30.56,East,80,0.0,0.0,97,0.00,,---,0.03,VWS V14.01,2013-02-15 05:40:00,
2013-02-14 21:45:00,43.4,42.6,30.56,East,80,0.0,0.0,97,0.00,,---,0.03,VWS V14.01,2013-02-15 05:45:00,
2013-02-14 21:50:00,43.4,42.6,30.56,East,80,0.0,0.0,97,0.00,,---,0.03,VWS V14.01,2013-02-15 05:50:00,
2013-02-14 21:55:00,43.4,42.6,30.56,East,80,0.0,0.0,97,0.00,,---,0.03,VWS V14.01,2013-02-15 05:55:00,
2013-02-14 22:00:00,43.4,42.6,30.56,East,80,0.0,0.0,97,0.00,,---,0.03,VWS V14.01,2013-02-15 06:00:00,
2013-02-14 22:05:00,43.4,42.6,30.56,East,80,0.0,0.0,97,0.00,,---,0.03,VWS V14.01,2013-02-15 06:05:00,
2013-02-14 22:10:00,43.4,42.6,30.56,East,80,0.0,0.0,97,0.00,,---,0.03,VWS V14.01,2013-02-15 06:10:00,
2013-02-14 22:15:00,43.4,42.6,30.57,East,80,0.0,0.0,97,0.00,,---,0.03,VWS V14.01,2013-02-15 06:15:00,
2013-02-14 22:20:00,43.4,42.6,30.56,East,80,0.0,0.0,97,0.00,,---,0.03,VWS V14.01,2013-02-15 06:20:00,
2013-02-14 22:25:00,43.4,42.6,30.56,East,80,0.0,0.0,97,0.00,,---,0.03,VWS V14.01,2013-02-15 06:25:00,
2013-02-14 22:30:00,43.4,42.6,30.56,East,80,0.0,0.0,97,0.00,,---,0.03,VWS V14.01,2013-02-15 06:30:00,
2013-02-14 22:35:00,43.4,42.6,30.56,East,80,0.0,0.0,97,0.00,,---,0.03,VWS V14.01,2013-02-15 06:35:00,
2013-02-14 22:40:00,43.4,42.6,30.56,East,80,0.0,0.0,97,0.00,,---,0.03,VWS V14.01,2013-02-15 06:40:00,
2013-02-14 22:45:00,43.4,42.6,30.57,East,80,0.0,0.0,97,0.00,,---,0.03,VWS V14.01,2013-02-15 06:45:00,
2013-02-14 22:50:00,43.4,42.6,30.56,East,80,0.0,0.0,97,0.00,,---,0.03,VWS V14.01,2013-02-15 06:50:00,
2013-02-14 22:55:00,43.4,42.6,30.56,East,80,0.0,0.0,97,0.00,,---,0.03,VWS V14.01,2013-02-15 06:55:00,
2013-02-14 23:00:00,43.4,42.6,30.56,East,80,0.0,0.0,97,0.00,,---,0.03,VWS V14.01,2013-02-15 07:00:00,
2013-02-14 23:05:00,43.4,42.6,30.56,East,80,0.0,0.0,97,0.00,,---,0.03,VWS V14.01,2013-02-15 07:05:00,
2013-02-14 23:10:00,43.4,42.6,30.56,East,80,0.0,0.0,97,0.00,,---,0.03,VWS V14.01,2013-02-15 07:10:00,
2013-02-14 23:15:00,43.4,42.6,30.56,East,80,0.0,0.0,97,0.00,,---,0.03,VWS V14.01,2013-02-15 07:15:00,
2013-02-14 23:20:00,43.4,42.6,30.56,East,80,0.0,0.0,97,0.00,,---,0.03,VWS V14.01,2013-02-15 07:20:00,
2013-02-14 23:25:00,43.4,42.6,30.56,East,80,0.0,0.0,97,0.00,,---,0.03,VWS V14.01,2013-02-15 07:25:00,
2013-02-14 23:30:00,43.4,42.6,30.56,East,80,0.0,0.0,97,0.00,,---,0.03,VWS V14.01,2013-02-15 07:30:00,
2013-02-14 23:35:00,43.4,42.6,30.56,East,80,0.0,0.0,97,0.00,,---,0.03,VWS V14.01,2013-02-15 07:35:00,
2013-02-14 23:40:00,43.4,42.6,30.56,East,80,0.0,0.0,97,0.00,,---,0.03,VWS V14.01,2013-02-15 07:40:00,
2013-02-14 23:45:00,43.4,42.6,30.56,East,80,0.0,0.0,97,0.00,,---,0.03,VWS V14.01,2013-02-15 07:45:00,
2013-02-14 23:50:00,43.5,42.7,30.56,East,80,0.0,0.0,97,0.00,,---,0.03,VWS V14.01,2013-02-15 07:50:00,
2013-02-14 23:55:00,43.5,42.7,30.56,East,80,0.0,0.0,97,0.00,,---,0.03,VWS V14.01,2013-02-15 07:55:00,